{"data":{"norad_id":40298,"epoch":"2026-05-25T04:15:32.264928Z","epoch_age_seconds":59986,"freshness":"FRESH","line1":"1 40298U 14070A   26145.17745677  .00004775  00000+0  22668-3 0  9996","line2":"2 40298  97.3451 221.9097 0003141 200.1106 160.0006 15.19707313640519","mean_motion":15.19707313,"eccentricity":0.0003141,"inclination_deg":97.3451,"raan_deg":221.9097,"arg_perigee_deg":200.1106,"mean_anomaly_deg":160.0006,"bstar":0.00022668,"rev_number":64051,"period_min":94.755087883163,"perigee_km":504.56192705631,"apogee_km":508.88699702676,"semimajor_km":6884.8614620415,"source":"CELESTRAK","updated_at":"2026-05-25T13:38:12.786846Z"}}